Courtland, AL

5:48 AM CST on February 13, 2016 (GMT -0600)
Courtland

Weather History for K9A4 - February, 2013

Change the Weather History Date:

Tuesday, February 19, 2013

  Actual Average (KMSL) Record (KMSL)
Temperature  
Mean Temperature 40 °F 46 °F  
Max Temperature 50 °F 56 °F 76 °F (1986)
Min Temperature 30 °F 36 °F 5 °F (1958)
Degree Days  
Heating Degree Days 25 19  
Month to date heating degree days 398  
Since 1 July heating degree days 2378  
Cooling Degree Days 0 0  
Month to date cooling degree days 0  
Year to date cooling degree days 0  
Moisture  
Dew Point 32 °F    
Average Humidity 69    
Maximum Humidity 100    
Minimum Humidity 30    
Precipitation  
Precipitation 0.00 in 0.18 in 3.38 in (1991)
Month to date precipitation 3.14  
Year to date precipitation 7.75  
Snow  
Snow 0.00 in - - ()
Month to date snowfall  
Since 1 July snowfall  
Snow Depth -    
Sea Level Pressure  
Sea Level Pressure 30.13 in    
Wind  
Wind Speed 10 mph (WNW)    
Max Wind Speed 21 mph    
Max Gust Speed 25 mph    
Visibility 10 miles    
Events Rain    
T = Trace of Precipitation, MM = Missing Value Source: NWS Daily Summary

Daily Weather History Graph

Daily Weather History Graph

Search for Another Location

Airport or City:

Trip Planner

Search our weather history database for the weather conditions in past years. The results will help you decide how hot, cold, wet, or windy it might be!

Date:

Astronomy

Feb. 19, 2013 Rise Set
Actual Time 6:30 AM CST 5:36 PM CST
Civil Twilight 6:04 AM CST 6:02 PM CST
Nautical Twilight 5:35 AM CST 6:31 PM CST
Astronomical Twilight 5:06 AM CST 7:00 PM CST
Moon 12:15 PM CST (2/19) 1:54 AM CST (2/19)
Length of Visible Light 11h 57m
Length of Day
11h 06m
Waxing Gibbous, 67% of the Moon is Illuminated
Feb 19
Waxing Gibbous
Feb 25
Full
Mar 4
Last Quarter
Mar 11
New
Mar 19
First Quarter

Hourly Weather History & Observations

Time (CST) Temp. Windchill Dew Point Humidity Pressure Visibility Wind Dir Wind Speed Gust Speed Precip Events Conditions
12:15 AM 46.4 °F 42.9 °F 46.4 °F 100% 30.00 in 10.0 mi West 6.9 mph - N/A Rain Light Rain
12:55 AM 46.4 °F 44.3 °F 46.4 °F 100% 29.98 in 10.0 mi South 4.6 mph - N/A Rain Rain
1:15 AM 46.4 °F 42.4 °F 46.4 °F 100% 29.97 in 10.0 mi SSE 8.1 mph - N/A Rain Rain
1:55 AM 46.4 °F 41.1 °F 46.4 °F 100% 29.94 in 10.0 mi South 11.5 mph - N/A Rain Light Rain
2:15 AM 46.4 °F 41.9 °F 46.4 °F 100% 29.93 in 10.0 mi SSW 9.2 mph 17.3 mph N/A   Drizzle
2:35 AM 46.4 °F 42.9 °F 46.4 °F 100% 29.94 in 10.0 mi SW 6.9 mph - N/A   Light Drizzle
2:55 AM 46.4 °F 42.4 °F 46.4 °F 100% 29.94 in 10.0 mi SSW 8.1 mph - N/A   Overcast
3:15 AM 48.2 °F - 46.4 °F 93% 29.94 in 7.0 mi SW 10.4 mph - N/A   Overcast
3:35 AM 48.2 °F - 46.4 °F 93% 29.94 in 7.0 mi SW 10.4 mph - N/A   Overcast
3:55 AM 48.2 °F - 48.2 °F 100% 29.95 in 10.0 mi WSW 8.1 mph - N/A   Overcast
4:15 AM 48.2 °F - 48.2 °F 100% 29.97 in 4.0 mi WSW 10.4 mph 16.1 mph N/A   Overcast
4:35 AM 48.2 °F - 48.2 °F 100% 29.98 in 5.0 mi WNW 13.8 mph 24.2 mph N/A   Overcast
4:55 AM 46.4 °F 39.2 °F 46.4 °F 100% 30.00 in 4.0 mi WNW 18.4 mph - N/A   Overcast
5:15 AM 44.6 °F 38.1 °F 44.6 °F 100% 30.01 in 10.0 mi NW 13.8 mph 23.0 mph N/A   Overcast
5:35 AM 44.6 °F 37.8 °F 42.8 °F 93% 30.03 in 10.0 mi NW 15.0 mph 19.6 mph N/A   Overcast
5:55 AM 42.8 °F 35.8 °F 41.0 °F 93% 30.05 in 10.0 mi WNW 13.8 mph - N/A   Overcast
6:15 AM 42.8 °F 36.2 °F 39.2 °F 87% 30.06 in 10.0 mi WNW 12.7 mph - N/A   Overcast
6:35 AM 42.8 °F 34.5 °F 35.6 °F 76% 30.07 in 10.0 mi NW 18.4 mph 24.2 mph N/A   Overcast
6:55 AM 42.8 °F 36.2 °F 35.6 °F 76% 30.08 in 10.0 mi NNW 12.7 mph 18.4 mph N/A   Overcast
7:15 AM 42.8 °F 36.6 °F 35.6 °F 76% 30.09 in 10.0 mi NNW 11.5 mph - N/A   Overcast
7:35 AM 42.8 °F 37.5 °F 35.6 °F 76% 30.11 in 10.0 mi NW 9.2 mph - N/A   Overcast
7:55 AM 41.0 °F 33.9 °F 33.8 °F 76% 30.12 in 10.0 mi WNW 12.7 mph - N/A   Mostly Cloudy
8:15 AM 42.8 °F 35.1 °F 33.8 °F 70% 30.13 in 10.0 mi NW 16.1 mph 21.9 mph N/A   Clear
8:35 AM 42.8 °F 35.4 °F 33.8 °F 70% 30.14 in 10.0 mi NW 15.0 mph - N/A   Scattered Clouds
9:15 AM 44.6 °F 38.8 °F 33.8 °F 66% 30.15 in 10.0 mi NW 11.5 mph 17.3 mph N/A   Scattered Clouds
9:35 AM 44.6 °F 37.4 °F 33.8 °F 66% 30.16 in 10.0 mi NW 16.1 mph 19.6 mph N/A   Clear
9:55 AM 44.6 °F 38.8 °F 33.8 °F 66% 30.17 in 10.0 mi West 11.5 mph - N/A   Clear
10:15 AM 44.6 °F 38.1 °F 32.0 °F 61% 30.17 in 10.0 mi WNW 13.8 mph - N/A   Clear
10:35 AM 44.6 °F 37.8 °F 32.0 °F 61% 30.18 in 10.0 mi WNW 15.0 mph 19.6 mph N/A   Clear
10:55 AM 46.4 °F 40.7 °F 32.0 °F 57% 30.18 in 10.0 mi WNW 12.7 mph 16.1 mph N/A   Clear
11:15 AM 46.4 °F 40.7 °F 32.0 °F 57% 30.18 in 10.0 mi NW 12.7 mph 19.6 mph N/A   Clear
11:35 AM 46.4 °F 41.1 °F 30.2 °F 53% 30.17 in 10.0 mi WNW 11.5 mph 18.4 mph N/A   Clear
11:55 AM 46.4 °F 41.1 °F 30.2 °F 53% 30.18 in 10.0 mi WNW 11.5 mph 19.6 mph N/A   Clear
12:15 PM 48.2 °F - 28.4 °F 46% 30.17 in 10.0 mi WNW 12.7 mph 23.0 mph N/A   Clear
12:35 PM 48.2 °F - 26.6 °F 43% 30.16 in 10.0 mi WNW 10.4 mph 25.3 mph N/A   Clear
12:55 PM 48.2 °F - 28.4 °F 46% 30.16 in 10.0 mi WNW 11.5 mph 24.2 mph N/A   Clear
1:15 PM 50.0 °F - 26.6 °F 40% 30.16 in 10.0 mi WNW 17.3 mph 24.2 mph N/A   Clear
1:35 PM 50.0 °F - 26.6 °F 40% 30.16 in 10.0 mi WNW 15.0 mph 21.9 mph N/A   Clear
1:55 PM 50.0 °F - 23.0 °F 35% 30.16 in 10.0 mi WNW 17.3 mph 24.2 mph N/A   Clear
2:15 PM 50.0 °F - 21.2 °F 32% 30.17 in 10.0 mi WNW 17.3 mph 25.3 mph N/A   Clear
2:35 PM 50.0 °F - 23.0 °F 35% 30.17 in 10.0 mi WNW 17.3 mph 25.3 mph N/A   Clear
2:55 PM 50.0 °F - 19.4 °F 30% 30.16 in 10.0 mi West 20.7 mph - N/A   Clear
3:15 PM 50.0 °F - 21.2 °F 32% 30.17 in 10.0 mi WNW 15.0 mph 25.3 mph N/A   Clear
3:35 PM 50.0 °F - 21.2 °F 32% 30.17 in 10.0 mi WNW 15.0 mph 23.0 mph N/A   Clear
3:55 PM 50.0 °F - 19.4 °F 30% 30.18 in 10.0 mi WNW 15.0 mph 21.9 mph N/A   Clear
4:15 PM 50.0 °F - 19.4 °F 30% 30.18 in 10.0 mi WNW 16.1 mph 23.0 mph N/A   Clear
4:35 PM 48.2 °F - 17.6 °F 30% 30.19 in 10.0 mi WNW 16.1 mph 20.7 mph N/A   Clear
5:15 PM 46.4 °F 39.8 °F 17.6 °F 32% 30.19 in 10.0 mi NW 16.1 mph 19.6 mph N/A   Clear
5:35 PM 44.6 °F 38.8 °F 19.4 °F 37% 30.20 in 10.0 mi NW 11.5 mph - N/A   Clear
6:35 PM 39.2 °F 35.0 °F 21.2 °F 49% 30.21 in 10.0 mi WNW 5.8 mph - N/A   Clear
6:55 PM 39.2 °F 37.0 °F 21.2 °F 49% 30.21 in 10.0 mi WNW 3.5 mph - N/A   Clear
7:35 PM 35.6 °F 32.8 °F 24.8 °F 65% 30.22 in 10.0 mi WNW 3.5 mph - N/A   Clear
7:55 PM 35.6 °F 29.9 °F 23.0 °F 60% 30.22 in 10.0 mi NW 6.9 mph - N/A   Clear
8:15 PM 35.6 °F 29.9 °F 24.8 °F 65% 30.23 in 10.0 mi NW 6.9 mph - N/A   Clear
8:35 PM 33.8 °F 27.7 °F 24.8 °F 70% 30.24 in 10.0 mi NW 6.9 mph - N/A   Clear
8:55 PM 33.8 °F 27.7 °F 24.8 °F 70% 30.26 in 10.0 mi NW 6.9 mph - N/A   Clear
9:15 PM 33.8 °F - 26.6 °F 75% 30.27 in 10.0 mi Calm Calm - N/A   Clear
9:35 PM 32.0 °F - 26.6 °F 80% 30.26 in 10.0 mi Calm Calm - N/A   Clear
9:55 PM 32.0 °F - 26.6 °F 80% 30.26 in 10.0 mi Calm Calm - N/A   Clear
10:15 PM 32.0 °F - 26.6 °F 80% 30.26 in 10.0 mi Calm Calm - N/A   Clear
10:35 PM 32.0 °F - 26.6 °F 80% 30.26 in 10.0 mi Calm Calm - N/A   Clear
10:55 PM 30.2 °F - 26.6 °F 86% 30.26 in 10.0 mi Calm Calm - N/A   Clear
11:15 PM 30.2 °F - 26.6 °F 86% 30.26 in 10.0 mi Calm Calm - N/A   Clear
11:35 PM 30.2 °F - 26.6 °F 86% 30.26 in 10.0 mi Calm Calm - N/A   Clear
11:55 PM 30.2 °F - 26.6 °F 86% 30.26 in 10.0 mi Calm Calm - N/A   Clear